Location: Stara Lesna
(49.1528°N, 20.2911°E)
Time: 02:22:36
(UTC+02:00)

Cosmos 1315 Rocket - Pass Details

Date: 21 September 2019
Orbit: 529 x 570 km, 81.2° (Epoch: 20 October)

Event Time Altitude Azimuth Distance (km) Brightness Sun altitude
Exits shadow 04:48:38 13° 193° (SSW) 1,702 5.0 -15.9°
Maximum altitude 04:52:22 83° 281° (W) 581 2.8 -15.3°
Drops below altitude 10° 04:56:32 10° 11° (N) 1,881 5.9 -14.7°
Sets 04:58:44 0° 12° (NNE) 2,781 6.8 -14.4°
